Find Starlink 34444

NORAD ID: 64369 Int'l Des: 2025-126 Owner: SPXS Country: US Constellation: starlink operational
LEOCIRCULAR

リアルタイム位置

3D地球を読み込み中...

Starlink 34444について

説明を読み込み中...

次回通過

Passes for default location (London). Set your location on the main map for personalized predictions.

高度履歴

Loading altitude history...

軌道要素

1 64369U 25126AB 26106.91033969 .00002105 00000-0 18416-3 0 9990
2 64369 69.9996 298.2160 0002449 270.2577 89.8301 14.98337129 46405
Epoch: Apr 16, 2026 • Age: 9 hours

現在のステータス

高度 583.2 km
速度 7.57 km/s
衛星直下点 59.87°N, 137.89°E
打ち上げ日 Jun 13, 2025
運用期間 0.8 years
タイプ internet

技術仕様

分類 Payload
質量 575.00 kg
乾燥質量 530.00 kg
総質量 575.00 kg
長さ 0.30 m
直径 4.10 m
スパン 29.00 m
形状 Box + pan
製造者 SPXS
バスタイプ Starlink V2MO
フェーズステータス In Orbit
所有者/国 SPXS/US

Most Searched